EW4939 Weather Reports


Display with metric or nautical units.
time (UTC)temp
F
wind
direction
speed
MPH
gust
MPH
rain 1hr
in
rain 24hr
in
rain mn
in
humidity
%
barometer
mb
20260505003725 72 160 0.0 3.0 0.00 0.00 0.00 52 1005.7
20260505003223 72 173 2.0 3.0 0.00 0.00 0.00 51 1005.5
20260505002718 72 173 2.0 2.0 0.00 0.00 0.00 52 1005.4
20260505002216 72 179 4.0 4.0 0.00 0.00 0.00 51 1005.3
20260505001714 73 174 1.0 3.0 0.00 0.00 0.00 51 1005.5
20260505001211 73 196 3.0 6.0 0.00 0.00 0.00 50 1005.7
20260505000708 73 184 1.0 7.0 0.00 0.00 0.00 50 1005.6
20260505000206 73 189 2.0 2.0 0.00 0.00 0.00 49 1005.6
20260504235702 74 185 1.0 8.0 0.00 0.00 0.00 48 1005.7
20260504235158 74 143 3.0 6.0 0.00 0.00 0.00 48 1005.7
20260504234656 74 218 2.0 3.0 0.00 0.00 0.00 47 1005.7
20260504234153 74 186 4.0 6.0 0.00 0.00 0.00 46 1005.8
20260504233648 74 196 0.0 2.0 0.00 0.00 0.00 46 1006.1
20260504233144 74 141 1.0 6.0 0.00 0.00 0.00 45 1006.0
20260504232643 74 199 1.0 4.0 0.00 0.00 0.00 45 1006.1
20260504232139 75 169 4.0 6.0 0.00 0.00 0.00 44 1006.1
20260504231636 75 189 3.0 11.0 0.00 0.00 0.00 44 1006.0
20260504231132 76 163 3.0 7.0 0.00 0.00 0.00 43 1006.2
20260504230628 76 137 7.0 10.0 0.00 0.00 0.00 43 1006.0
20260504230127 76 212 3.0 8.0 0.00 0.00 0.00 43 1006.1
20260504225625 76 182 3.0 15.0 0.00 0.00 0.00 43 1006.1
20260504225121 76 208 8.0 11.0 0.00 0.00 0.00 44 1006.2
20260504224618 76 163 5.0 8.0 0.00 0.00 0.00 45 1006.1
20260504224115 75 197 3.0 6.0 0.00 0.00 0.00 48 1006.2
20260504223612 75 171 5.0 7.0 0.00 0.00 0.00 49 1006.3
20260504223108 75 121 3.0 4.0 0.00 0.00 0.00 51 1006.2
20260504222605 75 155 4.0 6.0 0.00 0.00 0.00 49 1006.3
20260504222102 75 208 2.0 6.0 0.00 0.00 0.00 50 1006.4
20260504221559 75 195 2.0 2.0 0.00 0.00 0.00 49 1006.6
20260504221055 75 176 0.0 3.0 0.00 0.00 0.00 49 1006.7
20260504220552 74 153 2.0 3.0 0.00 0.00 0.00 50 1006.5
20260504220049 74 199 2.0 7.0 0.00 0.00 0.00 48 1006.6
20260504215546 74 199 2.0 3.0 0.00 0.00 0.00 49 1006.5
20260504215043 74 188 2.0 3.0 0.00 0.00 0.00 48 1006.5
20260504214539 74 152 4.0 7.0 0.00 0.00 0.00 49 1006.7
20260504214036 74 213 0.0 3.0 0.00 0.00 0.00 47 1006.9
20260504213532 75 214 2.0 3.0 0.00 0.00 0.00 47 1007.0
20260504213030 75 210 3.0 4.0 0.00 0.00 0.00 46 1007.2
20260504212525 75 293 1.0 1.0 0.00 0.00 0.00 48 1007.2
20260504212023 76 187 3.0 6.0 0.00 0.00 0.00 46 1007.3
20260504211520 76 315 2.0 2.0 0.00 0.00 0.00 47 1007.4
20260504211017 75 56 0.0 2.0 0.00 0.00 0.00 46 1007.5
20260504210514 75 189 3.0 7.0 0.00 0.00 0.00 48 1007.4
20260504210010 75 210 2.0 6.0 0.00 0.00 0.00 48 1007.6
20260504205508 76 317 1.0 4.0 0.00 0.00 0.00 50 1007.6
20260504205006 76 216 3.0 3.0 0.00 0.00 0.00 48 1007.6
20260504204504 75 217 2.0 4.0 0.00 0.00 0.00 49 1007.7
20260504204003 75 196 3.0 8.0 0.00 0.00 0.00 49 1007.9
20260504203500 76 273 2.0 4.0 0.00 0.00 0.00 48 1007.9
20260504202956 76 188 4.0 6.0 0.00 0.00 0.00 46 1007.9
20260504202452 77 235 0.0 3.0 0.00 0.00 0.00 48 1008.0
20260504201949 74 221 2.0 7.0 0.00 0.00 0.00 50 1008.0
20260504201447 74 232 1.0 2.0 0.00 0.00 0.00 50 1008.4
20260504200944 74 224 0.0 6.0 0.00 0.00 0.00 51 1008.1
20260504200441 75 169 1.0 2.0 0.00 0.00 0.00 50 1008.2
20260504195937 75 190 2.0 8.0 0.00 0.00 0.00 50 1008.3
20260504195433 75 159 2.0 7.0 0.00 0.00 0.00 50 1008.5
20260504194930 74 156 4.0 7.0 0.00 0.00 0.00 51 1008.4
20260504194426 75 141 7.0 9.0 0.00 0.00 0.00 50 1008.3
20260504193922 74 287 3.0 3.0 0.00 0.00 0.00 52 1008.6
20260504193420 73 292 1.0 3.0 0.00 0.00 0.00 54 1008.5
20260504192918 73 152 4.0 7.0 0.00 0.00 0.00 56 1008.7
20260504192415 72 288 0.0 1.0 0.00 0.00 0.00 59 1009.0
20260504191914 71 216 1.0 2.0 0.00 0.00 0.00 59 1009.0
20260504191411 70 191 2.0 2.0 0.00 0.00 0.00 60 1008.9
20260504190906 69 349 0.0 1.0 0.00 0.00 0.00 62 1009.1
20260504190403 69 294 2.0 3.0 0.00 0.00 0.00 62 1009.5
20260504185859 68 179 1.0 2.0 0.00 0.00 0.00 64 1009.2
20260504185357 68 164 1.0 2.0 0.00 0.00 0.00 64 1009.1
20260504184852 68 183 0.0 1.0 0.00 0.00 0.00 64 1009.4
20260504184348 68 204 2.0 4.0 0.00 0.00 0.00 62 1009.5
20260504183844 69 286 0.0 3.0 0.00 0.00 0.00 60 1009.5
20260504183342 69 217 1.0 2.0 0.00 0.00 0.00 61 1009.4
20260504182839 69 178 2.0 3.0 0.00 0.00 0.00 60 1009.4
20260504182337 69 276 3.0 7.0 0.00 0.00 0.00 59 1009.5
20260504181833 69 222 3.0 8.0 0.00 0.00 0.00 59 1009.3
20260504181331 69 159 7.0 9.0 0.00 0.00 0.00 58 1009.2
20260504180830 70 188 2.0 4.0 0.00 0.00 0.00 58 1009.0
20260504180328 70 312 3.0 6.0 0.00 0.00 0.00 56 1009.0
20260504175826 71 185 4.0 7.0 0.00 0.00 0.00 56 1009.0
20260504175322 71 141 2.0 7.0 0.00 0.00 0.00 58 1008.5
20260504174821 71 174 4.0 6.0 0.00 0.00 0.00 57 1008.4
20260504174318 70 199 4.0 11.0 0.00 0.00 0.00 56 1008.4
20260504173814 70 178 7.0 10.0 0.00 0.00 0.00 56 1008.2
20260504173311 70 177 3.0 6.0 0.00 0.00 0.00 57 1008.6
20260504172808 70 166 3.0 6.0 0.00 0.00 0.00 57 1008.5
20260504172305 70 169 4.0 8.0 0.00 0.00 0.00 57 1008.7
20260504171800 70 185 4.0 7.0 0.00 0.00 0.00 61 1008.6
20260504171258 70 205 2.0 4.0 0.00 0.00 0.00 58 1008.8
20260504170755 69 214 2.0 3.0 0.00 0.00 0.00 60 1008.6
20260504170252 68 166 5.0 8.0 0.00 0.00 0.00 60 1008.4
20260504160210 66 196 2.0 2.0 0.00 0.00 0.00 62 1009.5
20260504151138 64 184 1.0 7.0 0.00 0.00 0.00 63 1009.5
20260504150636 63 204 0.0 3.0 0.00 0.00 0.00 63 1009.6
20260504150132 63 162 2.0 3.0 0.00 0.00 0.00 64 1009.6
20260504141101 61 173 3.0 6.0 0.00 0.00 0.00 64 1009.7
20260504140557 61 178 1.0 7.0 0.00 0.00 0.00 65 1009.7
20260504130522 58 196 3.0 4.0 0.00 0.00 0.00 69 1009.7
20260504110409 55 211 2.0 4.0 0.00 0.00 0.00 64 1009.9
20260504100331 53 168 0.0 1.0 0.00 0.00 0.00 68 1010.2
20260504081725 54 176 1.0 3.0 0.00 0.00 0.00 60 1010.9
20260504081221 55 164 1.0 2.0 0.00 0.00 0.00 59 1010.6
20260504080718 55 181 3.0 4.0 0.00 0.00 0.00 59 1011.0
20260504080214 55 159 2.0 4.0 0.00 0.00 0.00 60 1010.9
20260504070142 56 193 2.0 6.0 0.00 0.00 0.00 56 1011.0
20260504050531 55 165 0.0 2.0 0.00 0.00 0.00 57 1012.6
20260504045525 55 191 2.0 6.0 0.00 0.00 0.00 56 1012.6
20260504045020 55 168 2.0 3.0 0.00 0.00 0.00 57 1012.5
20260504044518 55 164 2.0 3.0 0.00 0.00 0.00 57 1012.6
20260504044014 55 149 3.0 4.0 0.00 0.00 0.00 56 1012.7
20260504043511 54 165 2.0 3.0 0.00 0.00 0.00 58 1012.7
20260504043009 54 167 1.0 2.0 0.00 0.00 0.00 59 1012.9
20260504042505 54 175 1.0 1.0 0.00 0.00 0.00 60 1012.9
20260504042003 53 170 1.0 2.0 0.00 0.00 0.00 61 1012.7
20260504041458 53 179 2.0 2.0 0.00 0.00 0.00 61 1012.9
20260504040954 53 164 0.0 2.0 0.00 0.00 0.00 62 1012.9
20260504040452 53 164 0.0 1.0 0.00 0.00 0.00 65 1013.0
20260504035948 53 162 0.0 2.0 0.00 0.00 0.00 61 1013.1
20260504035446 53 163 2.0 2.0 0.00 0.00 0.00 61 1013.2
20260504034942 53 170 0.0 1.0 0.00 0.00 0.00 62 1013.2
20260504034440 53 170 0.0 2.0 0.00 0.00 0.00 61 1013.1
20260504033937 53 176 0.0 1.0 0.00 0.00 0.00 61 1013.3
20260504033434 53 171 0.0 2.0 0.00 0.00 0.00 62 1013.4
20260504032931 53 170 0.0 0.0 0.00 0.00 0.00 61 1013.2
20260504032428 53 174 0.0 1.0 0.00 0.00 0.00 61 1013.4
20260504031925 53 174 1.0 2.0 0.00 0.00 0.00 60 1013.5
20260504031422 53 175 0.0 1.0 0.00 0.00 0.00 61 1013.3
20260504030919 54 175 0.0 2.0 0.00 0.00 0.00 60 1013.5
20260504030416 54 155 0.0 1.0 0.00 0.00 0.00 59 1013.2
20260504025912 54 161 0.0 2.0 0.00 0.00 0.00 59 1013.7
20260504025409 54 167 1.0 1.0 0.00 0.00 0.00 59 1013.5
20260504024905 54 182 0.0 0.0 0.00 0.00 0.00 59 1013.4
20260504024402 54 182 0.0 1.0 0.00 0.00 0.00 64 1013.5
20260504023859 55 182 0.0 1.0 0.00 0.00 0.00 57 1013.6
20260504023356 55 181 0.0 1.0 0.00 0.00 0.00 57 1013.7
20260504022851 55 182 0.0 0.0 0.00 0.00 0.00 56 1013.6
20260504022348 56 181 0.0 2.0 0.00 0.00 0.00 55 1013.8
20260504021845 56 163 1.0 1.0 0.00 0.00 0.00 55 1013.6
20260504021342 56 170 1.0 1.0 0.00 0.00 0.00 53 1013.6
20260504020839 56 168 1.0 3.0 0.00 0.00 0.00 53 1013.5
20260504020336 56 173 1.0 1.0 0.00 0.00 0.00 53 1013.5
20260504015832 57 178 2.0 2.0 0.00 0.00 0.00 52 1013.4
20260504015328 57 159 1.0 3.0 0.00 0.00 0.00 51 1013.3
20260504014824 57 167 2.0 2.0 0.00 0.00 0.00 50 1013.4
20260504014320 57 152 2.0 4.0 0.00 0.00 0.00 50 1013.1
20260504013819 57 165 2.0 3.0 0.00 0.00 0.00 48 1013.4
20260504013316 58 161 0.0 3.0 0.00 0.00 0.00 48 1013.1
20260504012812 58 168 3.0 4.0 0.00 0.00 0.00 47 1013.2
20260504012310 58 168 2.0 3.0 0.00 0.00 0.00 45 1013.4
20260504011808 58 160 2.0 2.0 0.00 0.00 0.00 45 1013.2
20260504011304 58 148 4.0 6.0 0.00 0.00 0.00 44 1013.1
20260504010800 58 195 1.0 3.0 0.00 0.00 0.00 44 1013.2
20260504010255 58 175 2.0 4.0 0.00 0.00 0.00 43 1013.2
20260504005753 59 209 1.0 3.0 0.00 0.00 0.00 43 1013.3
20260504005249 59 164 2.0 3.0 0.00 0.00 0.00 43 1013.2
20260504004747 59 192 3.0 3.0 0.00 0.00 0.00 42 1013.1
20260504004244 59 179 2.0 4.0 0.00 0.00 0.00 42 1013.1